Warsaw, IN

7:04 PM EDT on August 25, 2016 (GMT -0400)
Warsaw Municipal

Weather History for KASW - November, 2011

Change the Weather History Date:

Sunday, November 27, 2011

  Actual Average Record
Temperature  
Mean Temperature - -  
Max Temperature - 47 °F 68 °F (1990)
Min Temperature - 31 °F 17 °F (1955)
Moisture  
Dew Point -    
Average Humidity    
Maximum Humidity    
Minimum Humidity    
Precipitation  
Precipitation 0.46 in - - ()
Sea Level Pressure  
Sea Level Pressure 29.86 in    
Wind  
Wind Speed 8 mph (WNW)    
Max Wind Speed 14 mph    
Max Gust Speed 20 mph    
Visibility 10 miles    
Events Rain    
Averages and records for this station are not official NWS values.
T = Trace of Precipitation, MM = Missing Value Source: NWS Daily Summary

Daily Weather History Graph

Daily Weather History Graph

Search for Another Location

Airport or City:

Trip Planner

Search our weather history database for the weather conditions in past years. The results will help you decide how hot, cold, wet, or windy it might be!

Date:

Astronomy

Nov. 27, 2011 Rise Set
Actual Time 7:45 AM EST 5:16 PM EST
Civil Twilight 7:14 AM EST 5:46 PM EST
Nautical Twilight 6:40 AM EST 6:21 PM EST
Astronomical Twilight 6:07 AM EST 6:54 PM EST
Moon 10:09 AM EST (11/27) 7:54 PM EST (11/27)
Length of Visible Light 10h 32m
Length of Day
9h 31m
Waxing Crescent, 8% of the Moon is Illuminated
Nov 27
Waxing Crescent
Dec 2
First Quarter
Dec 10
Full
Dec 17
Last Quarter
Dec 24
New

Hourly Weather History & Observations

Time (EST) Temp. Dew Point Humidity Pressure Visibility Wind Dir Wind Speed Gust Speed Precip Events Conditions
12:15 AM - - N/A% 29.81 in 7.0 mi South 5.8 mph - N/A   Drizzle
12:35 AM - - N/A% 29.80 in 5.0 mi South 5.8 mph - N/A Rain Light Rain
12:55 AM - - N/A% 29.79 in 10.0 mi South 5.8 mph - N/A   Overcast
1:15 AM - - N/A% 29.78 in 10.0 mi South 4.6 mph - N/A   Overcast
1:35 AM - - N/A% 29.77 in 10.0 mi SSW 6.9 mph - N/A   Overcast
1:55 AM - - N/A% 29.78 in 10.0 mi SSW 4.6 mph - N/A Rain Rain
2:15 AM - - N/A% 29.78 in 10.0 mi SSW 6.9 mph - 0.01 in Rain Rain
2:35 AM - - N/A% 29.77 in 10.0 mi SSW 9.2 mph - 0.01 in Rain Light Rain
2:55 AM - - N/A% 29.77 in 10.0 mi South 6.9 mph - 0.01 in Rain Light Rain
3:15 AM - - N/A% 29.76 in 10.0 mi SSW 6.9 mph - N/A Rain Light Rain
3:35 AM - - N/A% 29.76 in 10.0 mi SSW 6.9 mph - 0.01 in Rain Light Rain
3:55 AM - - N/A% 29.76 in 7.0 mi SW 6.9 mph - 0.03 in Rain Rain
4:15 AM - - N/A% 29.75 in 10.0 mi SSW 5.8 mph - 0.01 in Rain Rain
4:35 AM - - N/A% 29.76 in 10.0 mi SW 12.7 mph 17.3 mph 0.03 in Rain Rain
4:55 AM - - N/A% 29.77 in 10.0 mi WSW 9.2 mph 16.1 mph 0.03 in Rain Light Rain
5:15 AM - - N/A% 29.77 in 10.0 mi WSW 10.4 mph - 0.01 in Rain Light Rain
5:35 AM - - N/A% 29.78 in 10.0 mi WSW 9.2 mph - 0.02 in Rain Light Rain
5:55 AM - - N/A% 29.78 in 7.0 mi West 5.8 mph - 0.02 in Rain Rain
6:15 AM - - N/A% 29.78 in 7.0 mi West 9.2 mph - 0.02 in Rain Light Rain
6:35 AM - - N/A% 29.78 in 10.0 mi West 9.2 mph - 0.04 in Rain Light Rain
6:55 AM - - N/A% 29.79 in 10.0 mi West 8.1 mph - 0.05 in Rain Light Rain
7:15 AM - - N/A% 29.80 in 10.0 mi West 8.1 mph - 0.01 in Rain Light Rain
7:35 AM - - N/A% 29.80 in 10.0 mi WNW 5.8 mph - 0.03 in Rain Rain
7:55 AM - - N/A% 29.81 in 10.0 mi West 8.1 mph - 0.05 in Rain Rain
8:15 AM - - N/A% 29.82 in 10.0 mi West 10.4 mph - 0.02 in Rain Rain
8:35 AM - - N/A% 29.82 in 10.0 mi WNW 8.1 mph - 0.04 in Rain Rain
8:55 AM - - N/A% 29.83 in 10.0 mi WNW 5.8 mph - 0.06 in Rain Rain
9:15 AM - - N/A% 29.83 in 10.0 mi West 8.1 mph - 0.01 in Rain Rain
9:35 AM - - N/A% 29.83 in 10.0 mi West 8.1 mph - 0.02 in Rain Light Rain
10:15 AM - - N/A% 29.85 in 10.0 mi West 8.1 mph - N/A Rain Light Rain
10:35 AM - - N/A% 29.84 in 10.0 mi WNW 10.4 mph - 0.01 in Rain Light Rain
10:55 AM - - N/A% 29.84 in 10.0 mi WNW 6.9 mph - 0.02 in Rain Light Rain
11:15 AM - - N/A% 29.83 in 10.0 mi WNW 8.1 mph - N/A Rain Light Rain
11:35 AM - - N/A% 29.85 in 10.0 mi WNW 8.1 mph - N/A   Drizzle
11:55 AM - - N/A% 29.85 in 10.0 mi WNW 9.2 mph - 0.01 in   Overcast
12:15 PM - - N/A% 29.85 in 10.0 mi NW 12.7 mph 17.3 mph N/A Rain Light Rain
12:55 PM - - N/A% 29.86 in 10.0 mi WNW 12.7 mph - 0.02 in Rain Light Rain
1:15 PM - - N/A% 29.87 in 10.0 mi NW 11.5 mph - N/A Rain Rain
1:35 PM - - N/A% 29.87 in 10.0 mi NW 12.7 mph 19.6 mph 0.01 in Rain Light Rain
1:55 PM - - N/A% 29.87 in 10.0 mi NW 10.4 mph 16.1 mph 0.03 in Rain Rain
2:15 PM - - N/A% 29.87 in 10.0 mi NW 10.4 mph - 0.01 in Rain Light Rain
2:35 PM - - N/A% 29.87 in 10.0 mi NNW 13.8 mph - 0.01 in Rain Light Rain
2:55 PM - - N/A% 29.87 in 10.0 mi NNW 11.5 mph - 0.01 in Rain Light Rain
3:15 PM - - N/A% 29.88 in 10.0 mi NNW 9.2 mph - N/A Rain Light Rain
3:35 PM - - N/A% 29.90 in 10.0 mi NW 10.4 mph - 0.01 in Rain Light Rain
3:55 PM - - N/A% 29.90 in 10.0 mi NNW 11.5 mph - 0.01 in Rain Light Rain
4:15 PM - - N/A% 29.91 in 10.0 mi NW 8.1 mph - N/A Rain Light Rain
4:35 PM - - N/A% 29.92 in 10.0 mi NNW 8.1 mph - 0.01 in Rain Light Rain
4:55 PM - - N/A% 29.94 in 10.0 mi NNW 9.2 mph - 0.02 in Rain Rain
5:15 PM - - N/A% 29.94 in 10.0 mi North 12.7 mph 17.3 mph 0.02 in Rain Rain
5:35 PM - - N/A% 29.95 in 10.0 mi NNW 9.2 mph 17.3 mph 0.03 in Rain Light Rain
5:55 PM - - N/A% 29.96 in 10.0 mi NNW 8.1 mph - 0.04 in Rain Light Rain
6:15 PM - - N/A% 29.97 in 10.0 mi NNW 11.5 mph 18.4 mph N/A Rain Light Rain
6:35 PM - - N/A% 29.99 in 10.0 mi NNW 8.1 mph - 0.01 in Rain Light Rain
6:55 PM - - N/A% 30.01 in 10.0 mi NNW 10.4 mph 17.3 mph 0.01 in Rain Light Rain
7:15 PM - - N/A% 30.00 in 10.0 mi NNW 10.4 mph - N/A Rain Light Rain
7:35 PM - - N/A% 30.00 in 10.0 mi North 11.5 mph 17.3 mph N/A Rain Light Rain
7:55 PM - - N/A% 30.01 in 10.0 mi North 10.4 mph - 0.01 in Rain Light Rain
8:15 PM - - N/A% 30.02 in 10.0 mi NNW 9.2 mph - N/A Rain Light Rain
8:35 PM - - N/A% 30.04 in 10.0 mi North 10.4 mph 17.3 mph N/A Rain Light Rain
8:55 PM - - N/A% 30.04 in 10.0 mi North 8.1 mph - 0.01 in Rain Light Rain
9:15 PM - - N/A% 30.04 in 10.0 mi North 10.4 mph - N/A Rain Light Rain
9:35 PM - - N/A% 30.05 in 10.0 mi North 8.1 mph - N/A   Overcast
9:55 PM - - N/A% 30.04 in 10.0 mi North 9.2 mph - N/A Rain Light Rain
10:35 PM - - N/A% 30.05 in 10.0 mi North 4.6 mph - N/A   Light Drizzle
10:55 PM - - N/A% 30.05 in 10.0 mi NNE 4.6 mph - N/A   Light Drizzle
11:15 PM - - N/A% 30.07 in 10.0 mi North 6.9 mph - N/A   Overcast
11:35 PM - - N/A% 30.07 in 10.0 mi North 6.9 mph - N/A   Overcast
11:55 PM - - N/A% 30.08 in 10.0 mi North 8.1 mph - N/A   Overcast